Winnipeg 'A' Cs, Canada

5:26 AM CDT on September 29, 2016 (GMT -0500)
Winnipeg International

Weather History for CYWG - October, 2012

Change the Weather History Date:

Saturday, October 13, 2012

  Actual Average Record
Temperature  
Mean Temperature 42 °F -  
Max Temperature 55 °F 50 °F 64 °F (2014)
Min Temperature 28 °F 31 °F 14 °F (2002)
Degree Days  
Heating Degree Days 24    
Moisture  
Dew Point 27 °F    
Average Humidity 57    
Maximum Humidity 87    
Minimum Humidity 33    
Precipitation  
Precipitation 0.00 in - - ()
Sea Level Pressure  
Sea Level Pressure 29.76 in    
Wind  
Wind Speed 10 mph ()    
Max Wind Speed 17 mph    
Max Gust Speed 17 mph    
Visibility 14.3 miles    
Events      
Averages and records for this station are not official NWS values.
T = Trace of Precipitation, MM = Missing Value Source: Averaged Metar Reports

Daily Weather History Graph

Daily Weather History Graph

Search for Another Location

Airport or City:

Trip Planner

Search our weather history database for the weather conditions in past years. The results will help you decide how hot, cold, wet, or windy it might be!

Date:

Astronomy

Oct. 13, 2012 Rise Set
Actual Time 7:48 AM CDT 6:40 PM CDT
Civil Twilight 7:15 AM CDT 7:13 PM CDT
Nautical Twilight 6:38 AM CDT 7:50 PM CDT
Astronomical Twilight 6:01 AM CDT 8:27 PM CDT
Moon 5:31 AM CDT (10/13) 5:30 PM CDT (10/13)
Length of Visible Light 11h 57m
Length of Day
10h 52m
Waning Crescent, 5% of the Moon is Illuminated
Oct 13
Waning Crescent
Oct 15
New
Oct 21
First Quarter
Oct 29
Full
Nov 6
Last Quarter

Hourly Weather History & Observations

Time (CDT) Temp. Windchill Dew Point Humidity Pressure Visibility Wind Dir Wind Speed Gust Speed Precip Events Conditions
12:00 AM 37.4 °F 28.9 °F 23.0 °F 56% 29.78 in 15.0 mi SSE 13.8 mph - N/A   Scattered Clouds
1:00 AM 39 °F - 22 °F 38% 29.75 in 9 mi Calm Calm - -  
1:00 AM 39.2 °F 31.2 °F 23.0 °F 52% 29.75 in 15.0 mi SSE 13.8 mph - N/A   Scattered Clouds
2:00 AM 39.2 °F 30.2 °F 23.0 °F 52% 29.73 in 15.0 mi SSE 17.3 mph - N/A   Mostly Cloudy
3:00 AM 39.2 °F 30.5 °F 23.0 °F 52% 29.70 in 15.0 mi South 16.1 mph - N/A   Overcast
4:00 AM 39.2 °F 30.8 °F 23.0 °F 52% 29.68 in 15.0 mi South 15.0 mph - N/A   Overcast
5:00 AM 39.2 °F 33.0 °F 24.8 °F 56% 29.68 in 15.0 mi South 9.2 mph - N/A   Overcast
6:00 AM 33.8 °F 27.0 °F 24.8 °F 70% 29.67 in 15.0 mi South 8.1 mph - N/A   Partly Cloudy
7:00 AM 35 °F - 25 °F 56% 29.67 in 9 mi Calm Calm - -  
7:00 AM 35.6 °F 29.9 °F 24.8 °F 65% 29.67 in 15.0 mi South 6.9 mph - N/A   Partly Cloudy
8:00 AM 28.4 °F - 23.0 °F 80% 29.70 in 15.0 mi North 2.3 mph - N/A   Mostly Cloudy
9:00 AM 32.0 °F 28.7 °F 26.6 °F 80% 29.71 in 15.0 mi ENE 3.5 mph - N/A   Mostly Cloudy
10:00 AM 39.2 °F 35.9 °F 26.6 °F 61% 29.72 in 15.0 mi North 4.6 mph - N/A   Mostly Cloudy
11:00 AM 42.8 °F 37.0 °F 26.6 °F 53% 29.74 in 15.0 mi North 10.4 mph - N/A   Partly Cloudy
12:00 PM 46.4 °F 41.1 °F 28.4 °F 50% 29.74 in 15.0 mi NNE 11.5 mph - N/A   Partly Cloudy
1:00 PM 49 °F - 29 °F 33% 29.75 in 9 mi Calm Calm - -  
1:00 PM 50.0 °F - 28.4 °F 43% 29.75 in 15.0 mi North 10.4 mph - N/A   Partly Cloudy
2:00 PM 51.8 °F - 30.2 °F 44% 29.75 in 15.0 mi North 11.5 mph 17.3 mph N/A   Partly Cloudy
3:00 PM 53.6 °F - 30.2 °F 41% 29.75 in 15.0 mi North 15.0 mph - N/A   Partly Cloudy
4:00 PM 55.4 °F - 32.0 °F 41% 29.77 in 15.0 mi North 13.8 mph - N/A   Partly Cloudy
5:00 PM 53.6 °F - 32.0 °F 44% 29.78 in 15.0 mi NNE 13.8 mph - N/A   Partly Cloudy
6:00 PM 50.0 °F - 30.2 °F 47% 29.81 in 15.0 mi NE 10.4 mph - N/A   Mostly Cloudy
7:00 PM 44.6 °F 39.2 °F 30.2 °F 57% 29.85 in 15.0 mi NE 10.4 mph - N/A   Mostly Cloudy
8:00 PM 41.0 °F 36.4 °F 30.2 °F 65% 29.87 in 15.0 mi North 6.9 mph - N/A   Scattered Clouds
9:00 PM 37.4 °F 32.1 °F 30.2 °F 75% 29.89 in 15.0 mi North 6.9 mph - N/A   Mostly Cloudy
10:00 PM 35.6 °F 28.6 °F 32.0 °F 87% 29.92 in 15.0 mi North 9.2 mph - N/A   Mostly Cloudy
11:00 PM 37.4 °F 30.3 °F 33.8 °F 87% 29.93 in 15.0 mi NNW 10.4 mph - N/A   Scattered Clouds